Time,TemperatureF,DewpointF,PressureIn,WindDirection,WindDirectionDegrees,WindSpeedMPH,WindSpeedGustMPH,Humidity,HourlyPrecipIn,Conditions,Clouds,dailyrainin,SolarRadiationWatts/m^2,SoftwareType,DateUTC
2013-09-11 00:04:00,58.8,57.1,29.97,WSW,248,1.6,0.0,94,0.00,RA,,0.01,0.0,WeatherDisplay:10.37,2013-09-10 22:04:00,
2013-09-11 00:09:00,58.8,57.1,30.00,WSW,248,1.2,0.0,94,0.01,RA,,0.01,0.0,WeatherDisplay:10.37,2013-09-10 22:09:00,
2013-09-11 00:14:00,58.6,56.9,30.00,WSW,248,0.0,0.0,94,0.01,RA,,0.01,0.0,WeatherDisplay:10.37,2013-09-10 22:14:00,
2013-09-11 00:19:00,58.6,56.9,30.00,WSW,248,1.2,0.0,94,0.01,CLR,,0.01,0.0,WeatherDisplay:10.37,2013-09-10 22:19:00,
2013-09-11 00:24:00,58.6,56.9,30.00,WSW,248,0.0,0.0,94,0.01,CLR,,0.01,0.0,WeatherDisplay:10.37,2013-09-10 22:24:00,
2013-09-11 00:29:00,58.6,56.9,30.00,SSW,202,1.2,0.0,94,0.01,CLR,,0.01,0.0,WeatherDisplay:10.37,2013-09-10 22:29:00,
2013-09-11 00:34:00,58.6,56.9,30.00,WSW,248,0.0,0.0,94,0.01,CLR,,0.01,0.0,WeatherDisplay:10.37,2013-09-10 22:34:00,
2013-09-11 00:39:00,58.6,56.9,30.00,SW,225,0.0,0.0,94,0.01,RA,,0.01,0.0,WeatherDisplay:10.37,2013-09-10 22:39:00,
2013-09-11 00:44:00,58.6,56.9,30.00,WSW,248,0.0,0.0,94,0.02,RA,,0.02,0.0,WeatherDisplay:10.37,2013-09-10 22:44:00,
2013-09-11 00:49:00,58.5,56.7,30.00,ESE,112,0.9,0.0,94,0.02,RA,,0.02,0.0,WeatherDisplay:10.37,2013-09-10 22:49:00,
2013-09-11 00:54:00,58.6,57.2,30.00,SSW,202,0.0,0.0,95,0.02,RA,,0.02,0.0,WeatherDisplay:10.37,2013-09-10 22:54:00,
2013-09-11 00:59:00,58.6,57.2,30.00,East,90,2.3,2.3,95,0.02,RA,,0.03,0.0,WeatherDisplay:10.37,2013-09-10 22:59:00,
2013-09-11 01:04:00,58.6,57.2,30.00,ESE,112,3.5,3.5,95,0.03,RA,,0.03,0.0,WeatherDisplay:10.37,2013-09-10 23:04:00,
2013-09-11 01:09:00,58.6,57.2,29.97,ENE,68,1.2,1.4,95,0.03,RA,,0.04,0.0,WeatherDisplay:10.37,2013-09-10 23:09:00,
2013-09-11 01:14:00,58.6,57.2,29.97,ENE,68,0.0,0.0,95,0.03,RA,,0.04,0.0,WeatherDisplay:10.37,2013-09-10 23:14:00,
2013-09-11 01:19:00,58.5,57.0,29.97,ESE,112,2.3,2.3,95,0.04,RA,,0.05,0.0,WeatherDisplay:10.37,2013-09-10 23:19:00,
2013-09-11 01:24:00,58.5,57.3,30.00,ESE,112,2.3,2.3,96,0.04,RA,,0.05,0.0,WeatherDisplay:10.37,2013-09-10 23:24:00,
2013-09-11 01:29:00,58.5,57.3,30.00,ESE,112,3.5,3.5,96,0.05,RA,,0.06,0.0,WeatherDisplay:10.37,2013-09-10 23:29:00,
2013-09-11 01:34:00,58.5,57.3,30.00,East,90,2.6,2.6,96,0.05,RA,,0.06,0.0,WeatherDisplay:10.37,2013-09-10 23:34:00,
2013-09-11 01:39:00,58.5,57.3,30.00,ESE,112,2.3,2.3,96,0.05,RA,,0.07,0.0,WeatherDisplay:10.37,2013-09-10 23:39:00,
2013-09-11 01:44:00,58.5,57.3,30.00,ESE,112,0.0,0.0,96,0.05,RA,,0.07,0.0,WeatherDisplay:10.37,2013-09-10 23:44:00,
2013-09-11 01:49:00,58.5,57.6,30.00,SSE,158,2.3,0.0,97,0.05,RA,,0.07,0.0,WeatherDisplay:10.37,2013-09-10 23:49:00,
2013-09-11 01:54:00,58.5,57.6,30.00,South,180,2.3,2.3,97,0.05,RA,,0.08,0.0,WeatherDisplay:10.37,2013-09-10 23:54:00,
2013-09-11 01:59:00,58.6,57.8,30.00,SE,135,3.5,3.5,97,0.05,RA,,0.08,0.0,WeatherDisplay:10.37,2013-09-10 23:59:00,
2013-09-11 02:04:00,58.6,57.8,30.00,SSE,158,3.5,3.5,97,0.05,RA,,0.09,0.0,WeatherDisplay:10.37,2013-09-11 00:04:00,
2013-09-11 02:09:00,58.6,57.8,29.97,ESE,112,4.6,4.6,97,0.05,RA,,0.09,0.0,WeatherDisplay:10.37,2013-09-11 00:09:00,
2013-09-11 02:14:00,58.6,58.1,29.97,ESE,112,4.6,4.6,98,0.05,RA,,0.09,0.0,WeatherDisplay:10.37,2013-09-11 00:14:00,
2013-09-11 02:19:00,58.6,58.1,29.97,ESE,112,5.8,5.8,98,0.04,CLR,,0.09,0.0,WeatherDisplay:10.37,2013-09-11 00:19:00,
2013-09-11 02:24:00,58.6,58.1,29.97,East,90,4.6,4.6,98,0.04,RA,,0.09,0.0,WeatherDisplay:10.37,2013-09-11 00:24:00,
2013-09-11 02:29:00,58.6,58.1,29.97,ESE,112,3.5,3.5,98,0.04,RA,,0.09,0.0,WeatherDisplay:10.37,2013-09-11 00:29:00,
2013-09-11 02:34:00,58.6,58.1,29.94,West,270,1.2,0.0,98,0.03,CLR,,0.09,0.0,WeatherDisplay:10.37,2013-09-11 00:34:00,
2013-09-11 02:39:00,58.6,58.1,29.97,WSW,248,3.5,3.5,98,0.03,RA,,0.10,0.0,WeatherDisplay:10.37,2013-09-11 00:39:00,
2013-09-11 02:44:00,58.5,57.9,29.97,WNW,292,2.4,2.4,98,0.03,RA,,0.10,0.0,WeatherDisplay:10.37,2013-09-11 00:44:00,
2013-09-11 02:49:00,58.5,57.9,29.97,WNW,292,2.3,2.3,98,0.02,CLR,,0.10,0.0,WeatherDisplay:10.37,2013-09-11 00:49:00,
2013-09-11 02:54:00,58.5,57.9,29.97,West,270,3.1,3.1,98,0.02,CLR,,0.10,0.0,WeatherDisplay:10.37,2013-09-11 00:54:00,
2013-09-11 02:59:00,58.6,58.1,29.97,WNW,292,2.3,2.3,98,0.02,CLR,,0.10,0.0,WeatherDisplay:10.37,2013-09-11 00:59:00,
2013-09-11 03:04:00,58.6,58.1,29.97,WNW,292,2.3,2.3,98,0.01,CLR,,0.10,0.0,WeatherDisplay:10.37,2013-09-11 01:04:00,
2013-09-11 03:09:00,58.8,58.3,29.97,WNW,292,0.0,0.0,98,0.01,CLR,,0.10,0.0,WeatherDisplay:10.37,2013-09-11 01:09:00,
2013-09-11 03:14:00,58.8,58.3,29.97,WNW,292,0.0,0.0,98,0.01,CLR,,0.10,0.0,WeatherDisplay:10.37,2013-09-11 01:14:00,
2013-09-11 03:19:00,58.8,58.3,29.97,WNW,292,0.0,0.0,98,0.01,CLR,,0.10,0.0,WeatherDisplay:10.37,2013-09-11 01:19:00,
2013-09-11 03:24:00,58.8,58.3,29.97,WNW,292,0.0,0.0,98,0.00,CLR,,0.10,0.0,WeatherDisplay:10.37,2013-09-11 01:24:00,
2013-09-11 03:29:00,58.8,58.3,29.97,NNW,338,0.0,0.0,98,0.00,CLR,,0.10,0.0,WeatherDisplay:10.37,2013-09-11 01:29:00,
2013-09-11 03:34:00,58.8,58.3,29.97,NE,45,1.2,0.0,98,0.00,CLR,,0.10,0.0,WeatherDisplay:10.37,2013-09-11 01:34:00,
2013-09-11 03:39:00,58.8,58.3,29.97,ESE,112,2.3,0.0,98,0.00,CLR,,0.10,0.0,WeatherDisplay:10.37,2013-09-11 01:39:00,
2013-09-11 03:44:00,58.8,58.3,29.97,ESE,112,2.0,2.0,98,0.00,CLR,,0.10,0.0,WeatherDisplay:10.37,2013-09-11 01:44:00,
2013-09-11 03:49:00,58.8,58.3,29.97,ENE,68,0.0,0.0,98,0.00,CLR,,0.10,0.0,WeatherDisplay:10.37,2013-09-11 01:49:00,
2013-09-11 03:54:00,58.8,58.3,29.94,East,90,0.0,0.0,98,0.00,CLR,,0.10,0.0,WeatherDisplay:10.37,2013-09-11 01:54:00,
2013-09-11 03:59:00,58.6,58.1,29.94,NW,315,0.0,0.0,98,0.00,CLR,,0.10,0.0,WeatherDisplay:10.37,2013-09-11 01:59:00,
2013-09-11 04:04:00,58.6,58.1,29.94,WNW,292,0.0,0.0,98,0.00,CLR,,0.10,0.0,WeatherDisplay:10.37,2013-09-11 02:04:00,
2013-09-11 04:09:00,58.6,58.1,29.97,WNW,292,0.0,0.0,98,0.00,CLR,,0.10,0.0,WeatherDisplay:10.37,2013-09-11 02:09:00,
2013-09-11 04:14:00,58.6,58.1,29.97,WNW,292,0.0,0.0,98,0.00,CLR,,0.10,0.0,WeatherDisplay:10.37,2013-09-11 02:14:00,
2013-09-11 04:19:00,58.6,58.1,29.97,WNW,292,0.0,0.0,98,0.00,CLR,,0.10,0.0,WeatherDisplay:10.37,2013-09-11 02:19:00,
2013-09-11 04:25:00,58.6,58.1,29.97,WNW,292,0.0,0.0,98,0.00,CLR,,0.10,0.0,WeatherDisplay:10.37,2013-09-11 02:25:00,
2013-09-11 04:30:00,58.6,58.1,29.97,WNW,292,0.0,0.0,98,0.00,CLR,,0.10,0.0,WeatherDisplay:10.37,2013-09-11 02:30:00,
2013-09-11 04:35:00,58.6,58.1,29.97,WNW,292,0.0,0.0,98,0.00,CLR,,0.10,0.0,WeatherDisplay:10.37,2013-09-11 02:35:00,
2013-09-11 04:40:00,58.6,58.1,29.94,NNW,338,0.0,0.0,98,0.00,CLR,,0.10,0.0,WeatherDisplay:10.37,2013-09-11 02:40:00,
2013-09-11 04:45:00,58.6,58.1,29.94,WNW,292,1.2,0.0,98,0.00,CLR,,0.10,0.0,WeatherDisplay:10.37,2013-09-11 02:45:00,
2013-09-11 04:50:00,58.6,58.1,29.94,NNW,338,0.0,0.0,98,0.00,CLR,,0.10,0.0,WeatherDisplay:10.37,2013-09-11 02:50:00,
2013-09-11 04:55:00,58.6,58.1,29.94,NNW,338,0.0,0.0,98,0.00,CLR,,0.10,0.0,WeatherDisplay:10.37,2013-09-11 02:55:00,
2013-09-11 05:00:00,58.6,58.1,29.94,NNW,338,0.0,0.0,98,0.00,CLR,,0.10,0.0,WeatherDisplay:10.37,2013-09-11 03:00:00,
2013-09-11 05:05:00,58.8,58.3,29.94,NNW,338,0.0,0.0,98,0.00,CLR,,0.10,0.0,WeatherDisplay:10.37,2013-09-11 03:05:00,
2013-09-11 05:10:00,58.8,58.3,29.94,NNW,338,0.0,0.0,98,0.00,CLR,,0.10,0.0,WeatherDisplay:10.37,2013-09-11 03:10:00,
2013-09-11 05:15:00,58.8,58.3,29.94,NE,45,1.2,0.0,98,0.00,CLR,,0.10,0.0,WeatherDisplay:10.37,2013-09-11 03:15:00,
2013-09-11 05:20:00,58.6,58.1,29.94,NNE,22,1.4,0.0,98,0.00,CLR,,0.10,0.0,WeatherDisplay:10.37,2013-09-11 03:20:00,
2013-09-11 05:25:00,58.6,58.1,29.94,ENE,68,2.3,2.3,98,0.00,CLR,,0.10,0.0,WeatherDisplay:10.37,2013-09-11 03:25:00,
2013-09-11 05:30:00,58.6,58.1,29.94,NNE,22,2.3,2.3,98,0.00,CLR,,0.10,0.0,WeatherDisplay:10.37,2013-09-11 03:30:00,
2013-09-11 05:35:00,58.8,58.3,29.94,NE,45,2.3,0.0,98,0.00,CLR,,0.10,0.0,WeatherDisplay:10.37,2013-09-11 03:35:00,
2013-09-11 05:40:00,58.8,58.3,29.94,ENE,68,3.5,0.0,98,0.00,RA,,0.10,0.0,WeatherDisplay:10.37,2013-09-11 03:40:00,
2013-09-11 05:45:00,58.6,58.1,29.94,ENE,68,1.2,1.2,98,0.01,RA,,0.11,0.0,WeatherDisplay:10.37,2013-09-11 03:45:00,
2013-09-11 05:50:00,58.6,58.1,29.94,ENE,68,2.3,2.3,98,0.01,RA,,0.11,0.0,WeatherDisplay:10.37,2013-09-11 03:50:00,
2013-09-11 05:55:00,58.6,58.1,29.94,ENE,68,2.6,0.0,98,0.01,RA,,0.11,0.0,WeatherDisplay:10.37,2013-09-11 03:55:00,
2013-09-11 06:00:00,58.5,57.9,29.94,ESE,112,2.3,2.3,98,0.02,RA,,0.12,0.0,WeatherDisplay:10.37,2013-09-11 04:00:00,
2013-09-11 06:01:00,58.5,57.9,29.94,North,0,2.3,2.3,98,0.02,RA,,0.12,0.0,WeatherDisplay:10.37,2013-09-11 04:01:00,
2013-09-11 06:02:00,58.5,57.9,29.94,WNW,292,1.2,0.0,98,0.02,RA,,0.12,0.0,WeatherDisplay:10.37,2013-09-11 04:02:00,
2013-09-11 06:07:00,58.3,57.7,29.94,North,0,0.0,0.0,98,0.02,RA,,0.12,0.0,WeatherDisplay:10.37,2013-09-11 04:07:00,
2013-09-11 06:12:00,58.3,57.7,29.94,North,0,0.0,0.0,98,0.02,OVC,,0.12,0.0,WeatherDisplay:10.37,2013-09-11 04:12:00,
2013-09-11 06:17:00,58.1,57.5,29.94,North,0,0.0,0.0,98,0.02,OVC,,0.12,0.0,WeatherDisplay:10.37,2013-09-11 04:17:00,
2013-09-11 06:22:00,58.1,57.5,29.97,North,0,0.0,0.0,98,0.02,OVC,,0.12,0.0,WeatherDisplay:10.37,2013-09-11 04:22:00,
2013-09-11 06:27:00,58.1,57.5,29.97,North,0,0.0,0.0,98,0.02,OVC,,0.12,0.0,WeatherDisplay:10.37,2013-09-11 04:27:00,
2013-09-11 06:32:00,58.1,57.5,29.97,WNW,292,3.5,3.5,98,0.02,OVC,,0.12,1.2,WeatherDisplay:10.37,2013-09-11 04:32:00,
2013-09-11 06:37:00,57.9,57.4,29.94,WNW,292,3.5,3.5,98,0.02,OVC,,0.12,3.6,WeatherDisplay:10.37,2013-09-11 04:37:00,
2013-09-11 06:42:00,57.6,57.0,29.94,WNW,292,2.3,2.3,98,0.01,OVC,,0.12,6.3,WeatherDisplay:10.37,2013-09-11 04:42:00,
2013-09-11 06:47:00,57.2,56.6,29.94,WSW,248,2.3,2.3,98,0.01,OVC,,0.12,8.9,WeatherDisplay:10.37,2013-09-11 04:47:00,
2013-09-11 06:52:00,57.2,56.6,29.97,NW,315,3.5,3.5,98,0.01,OVC,,0.12,11.6,WeatherDisplay:10.37,2013-09-11 04:52:00,
2013-09-11 06:57:00,57.0,56.5,29.97,West,270,3.5,3.5,98,0.01,OVC,,0.12,14.2,WeatherDisplay:10.37,2013-09-11 04:57:00,
2013-09-11 07:02:00,56.8,56.3,29.97,WSW,248,3.1,3.6,98,0.00,OVC,,0.12,16.8,WeatherDisplay:10.37,2013-09-11 05:02:00,
2013-09-11 07:07:00,56.7,56.1,29.97,WNW,292,4.6,4.6,98,0.00,OVC,,0.12,20.0,WeatherDisplay:10.37,2013-09-11 05:07:00,
2013-09-11 07:12:00,56.5,55.9,29.97,WNW,292,3.5,3.5,98,0.00,OVC,,0.12,22.8,WeatherDisplay:10.37,2013-09-11 05:12:00,
2013-09-11 07:17:00,56.3,55.7,29.97,WNW,292,3.5,3.5,98,0.00,OVC,,0.12,25.4,WeatherDisplay:10.37,2013-09-11 05:17:00,
2013-09-11 07:22:00,56.3,55.7,29.97,NNW,338,3.5,3.5,98,0.00,OVC,,0.12,28.2,WeatherDisplay:10.37,2013-09-11 05:22:00,
2013-09-11 07:27:00,56.1,55.6,29.97,NNE,22,3.5,3.5,98,0.00,OVC,,0.12,30.9,WeatherDisplay:10.37,2013-09-11 05:27:00,
2013-09-11 07:32:00,56.1,55.6,29.97,NW,315,3.3,3.3,98,0.00,OVC,,0.12,33.7,WeatherDisplay:10.37,2013-09-11 05:32:00,
2013-09-11 07:37:00,55.9,55.4,29.97,WNW,292,4.6,4.6,98,0.00,OVC,,0.12,36.5,WeatherDisplay:10.37,2013-09-11 05:37:00,
2013-09-11 07:42:00,55.8,55.2,29.97,WNW,292,5.8,5.8,98,0.00,RA,,0.12,39.3,WeatherDisplay:10.37,2013-09-11 05:42:00,
2013-09-11 07:47:00,55.8,55.2,29.97,NW,315,4.6,4.6,98,0.01,RA,,0.12,41.9,WeatherDisplay:10.37,2013-09-11 05:47:00,
2013-09-11 07:52:00,55.6,55.0,29.97,WNW,292,3.8,3.8,98,0.01,RA,,0.13,44.7,WeatherDisplay:10.37,2013-09-11 05:52:00,
2013-09-11 07:57:00,55.6,55.0,29.97,WNW,292,3.5,3.5,98,0.01,RA,,0.13,47.5,WeatherDisplay:10.37,2013-09-11 05:57:00,
2013-09-11 08:02:00,55.6,55.0,29.97,WNW,292,4.6,4.6,98,0.02,RA,,0.00,50.3,WeatherDisplay:10.37,2013-09-11 06:02:00,
2013-09-11 08:07:00,55.6,55.0,29.97,NW,315,2.3,2.3,98,0.02,RA,,0.00,53.0,WeatherDisplay:10.37,2013-09-11 06:07:00,
2013-09-11 08:12:00,55.6,55.0,29.97,NNW,338,3.5,3.5,98,0.02,RA,,0.00,55.8,WeatherDisplay:10.37,2013-09-11 06:12:00,
2013-09-11 08:17:00,55.6,55.0,29.97,WNW,292,4.6,4.6,98,0.03,RA,,0.01,58.6,WeatherDisplay:10.37,2013-09-11 06:17:00,
2013-09-11 08:22:00,55.6,55.0,30.00,WNW,292,3.5,3.5,98,0.03,RA,,0.02,61.4,WeatherDisplay:10.37,2013-09-11 06:22:00,
2013-09-11 08:27:00,55.6,55.0,30.00,WSW,248,4.6,4.6,98,0.04,RA,,0.02,64.0,WeatherDisplay:10.37,2013-09-11 06:27:00,
2013-09-11 08:32:00,55.6,55.0,30.00,WNW,292,3.5,3.5,98,0.04,RA,,0.02,66.8,WeatherDisplay:10.37,2013-09-11 06:32:00,
2013-09-11 08:37:00,55.6,55.0,29.97,NW,315,5.8,5.8,98,0.04,OVC,,0.02,69.5,WeatherDisplay:10.37,2013-09-11 06:37:00,
2013-09-11 08:42:00,55.6,55.0,29.97,WNW,292,3.1,3.1,98,0.04,OVC,,0.02,72.3,WeatherDisplay:10.37,2013-09-11 06:42:00,
2013-09-11 08:47:00,55.6,55.0,29.97,NW,315,3.5,3.5,98,0.03,RA,,0.02,74.9,WeatherDisplay:10.37,2013-09-11 06:47:00,
2013-09-11 08:52:00,55.6,55.0,29.97,WNW,292,3.5,3.5,98,0.03,RA,,0.02,77.7,WeatherDisplay:10.37,2013-09-11 06:52:00,
2013-09-11 08:57:00,55.6,55.0,29.97,West,270,3.5,3.5,98,0.03,OVC,,0.02,80.4,WeatherDisplay:10.37,2013-09-11 06:57:00,
2013-09-11 09:02:00,55.8,55.2,29.97,WNW,292,4.7,4.7,98,0.02,OVC,,0.02,82.8,WeatherDisplay:10.37,2013-09-11 07:02:00,
2013-09-11 09:07:00,55.8,55.2,29.97,NW,315,4.9,4.9,98,0.02,OVC,,0.02,85.5,WeatherDisplay:10.37,2013-09-11 07:07:00,
2013-09-11 09:12:00,55.6,55.0,29.97,NW,315,5.8,5.8,98,0.02,OVC,,0.02,88.1,WeatherDisplay:10.37,2013-09-11 07:12:00,
2013-09-11 09:17:00,55.6,55.0,29.97,NNW,338,3.5,3.5,98,0.02,OVC,,0.02,90.8,WeatherDisplay:10.37,2013-09-11 07:17:00,
2013-09-11 09:22:00,55.8,55.2,29.97,North,0,2.3,2.4,98,0.01,OVC,,0.02,93.2,WeatherDisplay:10.37,2013-09-11 07:22:00,
2013-09-11 09:27:00,55.8,55.2,29.97,WNW,292,4.3,4.3,98,0.00,OVC,,0.02,95.7,WeatherDisplay:10.37,2013-09-11 07:27:00,
2013-09-11 09:32:00,55.9,55.4,29.97,North,0,4.6,4.6,98,0.00,OVC,,0.02,98.2,WeatherDisplay:10.37,2013-09-11 07:32:00,
2013-09-11 09:38:00,55.9,55.4,29.97,NNW,338,1.2,0.0,98,0.00,OVC,,0.02,101.1,WeatherDisplay:10.37,2013-09-11 07:38:00,
2013-09-11 09:43:00,56.1,55.6,29.97,NNW,338,3.5,3.5,98,0.00,OVC,,0.02,103.6,WeatherDisplay:10.37,2013-09-11 07:43:00,
2013-09-11 09:48:00,56.1,55.6,29.97,NW,315,2.6,2.6,98,0.00,OVC,,0.02,105.9,WeatherDisplay:10.37,2013-09-11 07:48:00,
2013-09-11 09:53:00,56.3,55.7,29.97,WSW,248,3.5,3.5,98,0.00,OVC,,0.02,108.2,WeatherDisplay:10.37,2013-09-11 07:53:00,
2013-09-11 09:58:00,56.3,55.7,29.97,NW,315,3.5,3.5,98,0.00,OVC,,0.02,110.5,WeatherDisplay:10.37,2013-09-11 07:58:00,
2013-09-11 10:03:00,56.3,55.7,29.97,WNW,292,3.5,3.5,98,0.00,RA,,0.03,112.9,WeatherDisplay:10.37,2013-09-11 08:03:00,
2013-09-11 10:08:00,56.1,55.6,30.00,NW,315,3.6,3.6,98,0.00,RA,,0.03,115.0,WeatherDisplay:10.37,2013-09-11 08:08:00,
2013-09-11 10:13:00,56.1,55.6,30.00,West,270,5.8,5.8,98,0.01,RA,,0.03,117.2,WeatherDisplay:10.37,2013-09-11 08:13:00,
2013-09-11 10:18:00,55.9,55.4,30.00,WNW,292,3.5,3.5,98,0.01,RA,,0.03,119.3,WeatherDisplay:10.37,2013-09-11 08:18:00,
2013-09-11 10:23:00,55.9,55.4,30.00,WSW,248,4.6,4.6,98,0.01,OVC,,0.03,121.4,WeatherDisplay:10.37,2013-09-11 08:23:00,
2013-09-11 10:28:00,55.9,55.4,30.00,WNW,292,4.7,4.7,98,0.01,OVC,,0.03,123.4,WeatherDisplay:10.37,2013-09-11 08:28:00,
2013-09-11 10:33:00,55.8,55.2,30.00,WNW,292,4.6,4.6,98,0.01,OVC,,0.03,125.4,WeatherDisplay:10.37,2013-09-11 08:33:00,
2013-09-11 10:38:00,55.8,55.2,30.00,NNW,338,3.5,3.5,98,0.01,OVC,,0.03,127.2,WeatherDisplay:10.37,2013-09-11 08:38:00,
2013-09-11 10:43:00,55.8,55.2,30.00,West,270,3.6,3.6,98,0.01,RA,,0.04,129.2,WeatherDisplay:10.37,2013-09-11 08:43:00,
2013-09-11 10:48:00,55.9,55.4,30.00,WNW,292,4.6,4.6,98,0.01,RA,,0.04,131.0,WeatherDisplay:10.37,2013-09-11 08:48:00,
2013-09-11 10:53:00,55.9,55.4,30.00,NNW,338,5.8,5.8,98,0.01,OVC,,0.04,132.7,WeatherDisplay:10.37,2013-09-11 08:53:00,
2013-09-11 10:58:00,55.8,55.2,30.00,WNW,292,5.8,5.8,98,0.02,RA,,0.04,134.3,WeatherDisplay:10.37,2013-09-11 08:58:00,
2013-09-11 11:03:00,55.8,55.2,30.00,WNW,292,4.6,4.6,98,0.01,RA,,0.04,136.0,WeatherDisplay:10.37,2013-09-11 09:03:00,
2013-09-11 11:08:00,55.6,55.0,30.00,WNW,292,4.6,4.6,98,0.01,OVC,,0.04,137.6,WeatherDisplay:10.37,2013-09-11 09:08:00,
2013-09-11 11:13:00,55.4,54.8,30.00,NNE,22,4.6,4.6,98,0.01,OVC,,0.04,139.1,WeatherDisplay:10.37,2013-09-11 09:13:00,
2013-09-11 11:18:00,55.4,54.8,30.00,WNW,292,3.5,3.5,98,0.01,OVC,,0.04,140.4,WeatherDisplay:10.37,2013-09-11 09:18:00,
2013-09-11 11:23:00,55.4,54.8,30.00,WNW,292,5.8,5.8,98,0.01,OVC,,0.04,141.9,WeatherDisplay:10.37,2013-09-11 09:23:00,
2013-09-11 11:28:00,55.4,54.8,30.00,WNW,292,3.8,3.8,98,0.01,RA,,0.04,143.2,WeatherDisplay:10.37,2013-09-11 09:28:00,
2013-09-11 11:33:00,55.6,55.0,30.00,WNW,292,6.9,6.9,98,0.02,RA,,0.05,144.4,WeatherDisplay:10.37,2013-09-11 09:33:00,
2013-09-11 11:38:00,55.6,55.0,30.00,WNW,292,6.9,6.9,98,0.02,RA,,0.05,145.7,WeatherDisplay:10.37,2013-09-11 09:38:00,
2013-09-11 11:43:00,55.6,55.0,30.00,WSW,248,8.1,8.1,98,0.02,RA,,0.05,146.7,WeatherDisplay:10.37,2013-09-11 09:43:00,
2013-09-11 11:48:00,55.4,54.8,30.00,WSW,248,5.8,5.8,98,0.02,OVC,,0.05,147.8,WeatherDisplay:10.37,2013-09-11 09:48:00,
2013-09-11 11:53:00,55.4,54.8,29.97,West,270,6.9,6.9,98,0.02,RA,,0.06,148.8,WeatherDisplay:10.37,2013-09-11 09:53:00,
2013-09-11 11:58:00,55.4,54.8,29.97,WNW,292,5.9,5.9,98,0.02,RA,,0.06,149.7,WeatherDisplay:10.37,2013-09-11 09:58:00,
2013-09-11 12:03:00,55.2,54.7,29.97,West,270,4.6,4.7,98,0.02,RA,,0.06,150.5,WeatherDisplay:10.37,2013-09-11 10:03:00,
2013-09-11 12:08:00,55.2,54.7,29.97,NNW,338,4.6,4.6,98,0.02,RA,,0.06,151.3,WeatherDisplay:10.37,2013-09-11 10:08:00,
2013-09-11 12:13:00,55.4,54.8,29.97,WNW,292,5.8,5.8,98,0.02,OVC,,0.06,152.0,WeatherDisplay:10.37,2013-09-11 10:13:00,
2013-09-11 12:18:00,55.4,54.8,29.97,NW,315,4.6,4.6,98,0.03,RA,,0.06,152.5,WeatherDisplay:10.37,2013-09-11 10:18:00,
2013-09-11 12:23:00,55.6,55.0,29.97,WNW,292,4.0,4.0,98,0.03,RA,,0.06,153.1,WeatherDisplay:10.37,2013-09-11 10:23:00,
2013-09-11 12:28:00,55.9,55.4,29.97,WNW,292,5.8,5.8,98,0.02,OVC,,0.06,153.6,WeatherDisplay:10.37,2013-09-11 10:28:00,
2013-09-11 12:33:00,55.9,55.4,29.97,WNW,292,4.6,4.6,98,0.02,OVC,,0.06,153.9,WeatherDisplay:10.37,2013-09-11 10:33:00,
2013-09-11 12:38:00,56.1,55.6,30.00,NNW,338,5.4,5.4,98,0.01,OVC,,0.06,154.3,WeatherDisplay:10.37,2013-09-11 10:38:00,
2013-09-11 12:43:00,56.1,55.6,30.00,WNW,292,4.6,4.6,98,0.01,OVC,,0.06,154.4,WeatherDisplay:10.37,2013-09-11 10:43:00,
2013-09-11 12:48:00,56.3,55.7,30.00,NNW,338,4.6,4.6,98,0.01,OVC,,0.06,154.8,WeatherDisplay:10.37,2013-09-11 10:48:00,
2013-09-11 12:53:00,56.1,55.6,30.00,NNW,338,6.9,6.9,98,0.01,OVC,,0.06,154.8,WeatherDisplay:10.37,2013-09-11 10:53:00,
2013-09-11 12:58:00,56.3,55.7,30.00,NW,315,6.9,6.9,98,0.01,OVC,,0.06,154.8,WeatherDisplay:10.37,2013-09-11 10:58:00,
2013-09-11 13:03:00,56.3,55.7,30.00,West,270,4.6,4.6,98,0.00,OVC,,0.06,154.8,WeatherDisplay:10.37,2013-09-11 11:03:00,
2013-09-11 13:08:00,56.5,55.9,30.00,WNW,292,3.5,3.5,98,0.00,OVC,,0.06,154.6,WeatherDisplay:10.37,2013-09-11 11:08:00,
2013-09-11 13:13:00,56.8,56.3,30.00,West,270,4.9,4.9,98,0.00,OVC,,0.06,154.4,WeatherDisplay:10.37,2013-09-11 11:13:00,
2013-09-11 13:18:00,57.2,56.6,30.00,NNW,338,3.6,3.6,98,0.00,OVC,,0.06,154.1,WeatherDisplay:10.37,2013-09-11 11:18:00,
2013-09-11 13:23:00,57.2,56.6,30.00,NNE,22,5.9,5.9,98,0.00,OVC,,0.06,153.8,WeatherDisplay:10.37,2013-09-11 11:23:00,
2013-09-11 13:28:00,57.4,56.8,30.00,ENE,68,2.4,3.8,98,0.00,OVC,,0.06,153.3,WeatherDisplay:10.37,2013-09-11 11:28:00,
2013-09-11 13:33:00,57.4,56.8,30.00,WNW,292,3.5,4.0,98,0.00,OVC,,0.06,152.8,WeatherDisplay:10.37,2013-09-11 11:33:00,
2013-09-11 13:39:00,57.2,56.6,30.00,WNW,292,3.5,4.0,98,0.00,OVC,,0.06,152.1,WeatherDisplay:10.37,2013-09-11 11:39:00,
2013-09-11 13:44:00,57.2,56.6,29.97,WNW,292,3.5,4.0,98,0.00,OVC,,0.06,151.5,WeatherDisplay:10.37,2013-09-11 11:44:00,
2013-09-11 13:49:00,57.4,56.8,29.97,WNW,292,3.5,4.0,98,0.00,OVC,,0.06,150.6,WeatherDisplay:10.37,2013-09-11 11:49:00,
2013-09-11 13:54:00,57.7,57.2,29.97,WNW,292,3.5,4.0,98,0.00,OVC,,0.06,150.0,WeatherDisplay:10.37,2013-09-11 11:54:00,
2013-09-11 13:59:00,58.1,57.5,29.97,WNW,292,3.5,4.0,98,0.00,OVC,,0.06,149.0,WeatherDisplay:10.37,2013-09-11 11:59:00,
2013-09-11 14:04:00,58.3,57.7,29.97,WNW,292,3.5,4.0,98,0.00,OVC,,0.06,148.0,WeatherDisplay:10.37,2013-09-11 12:04:00,
2013-09-11 14:09:00,58.5,57.9,29.97,WNW,292,3.5,4.0,98,0.00,OVC,,0.06,147.0,WeatherDisplay:10.37,2013-09-11 12:09:00,
2013-09-11 14:14:00,58.8,58.3,29.97,WNW,292,3.5,4.0,98,0.00,OVC,,0.06,145.9,WeatherDisplay:10.37,2013-09-11 12:14:00,
2013-09-11 14:19:00,58.8,58.3,29.97,WNW,292,3.5,4.0,98,0.00,OVC,,0.06,144.7,WeatherDisplay:10.37,2013-09-11 12:19:00,
2013-09-11 14:24:00,59.0,58.2,29.97,WNW,292,3.5,4.0,97,0.00,OVC,,0.06,143.6,WeatherDisplay:10.37,2013-09-11 12:24:00,
2013-09-11 14:29:00,59.4,58.2,29.97,WNW,292,3.5,4.0,96,0.00,OVC,,0.06,142.2,WeatherDisplay:10.37,2013-09-11 12:29:00,
2013-09-11 14:34:00,59.7,58.3,29.97,NNW,338,6.0,6.0,95,0.00,OVC,,0.06,140.9,WeatherDisplay:10.37,2013-09-11 12:34:00,
2013-09-11 14:39:00,60.1,58.0,29.97,North,0,5.8,6.4,93,0.00,OVC,,0.06,139.4,WeatherDisplay:10.37,2013-09-11 12:39:00,
2013-09-11 14:44:00,60.4,58.1,29.97,NNW,338,7.4,7.4,92,0.00,OVC,,0.06,137.9,WeatherDisplay:10.37,2013-09-11 12:44:00,
2013-09-11 14:49:00,61.0,57.4,29.97,WNW,292,8.1,8.1,88,0.00,OVC,,0.06,136.5,WeatherDisplay:10.37,2013-09-11 12:49:00,
2013-09-11 14:54:00,61.3,57.8,29.97,NW,315,11.5,11.5,88,0.00,OVC,,0.06,134.8,WeatherDisplay:10.37,2013-09-11 12:54:00,
2013-09-11 14:59:00,61.5,57.3,29.97,NNE,22,6.2,6.7,86,0.00,OVC,,0.06,133.2,WeatherDisplay:10.37,2013-09-11 12:59:00,
2013-09-11 15:04:00,61.3,56.1,29.97,NNW,338,8.1,8.1,83,0.00,OVC,,0.06,131.3,WeatherDisplay:10.37,2013-09-11 13:04:00,
2013-09-11 15:09:00,61.2,56.0,29.97,NNW,338,7.4,7.4,83,0.00,OVC,,0.06,129.7,WeatherDisplay:10.37,2013-09-11 13:09:00,
2013-09-11 15:14:00,61.5,54.9,29.97,North,0,4.9,4.9,79,0.00,OVC,,0.06,127.7,WeatherDisplay:10.37,2013-09-11 13:14:00,
2013-09-11 15:19:00,62.2,56.0,29.97,WNW,292,6.2,6.2,80,0.00,OVC,,0.06,125.9,WeatherDisplay:10.37,2013-09-11 13:19:00,
2013-09-11 15:24:00,62.6,56.3,29.94,NNW,338,4.6,4.9,80,0.00,OVC,,0.06,123.9,WeatherDisplay:10.37,2013-09-11 13:24:00,
2013-09-11 15:29:00,62.8,56.9,29.94,NNW,338,4.6,4.9,81,0.00,OVC,,0.06,121.9,WeatherDisplay:10.37,2013-09-11 13:29:00,
2013-09-11 15:34:00,62.4,55.1,29.94,WNW,292,9.7,9.7,77,0.00,OVC,,0.06,120.0,WeatherDisplay:10.37,2013-09-11 13:34:00,
2013-09-11 15:39:00,62.6,54.9,29.94,NW,315,3.6,6.4,76,0.00,OVC,,0.06,117.8,WeatherDisplay:10.37,2013-09-11 13:39:00,
2013-09-11 15:44:00,62.6,54.9,29.94,NNW,338,7.4,7.4,76,0.00,OVC,,0.06,115.7,WeatherDisplay:10.37,2013-09-11 13:44:00,
2013-09-11 15:49:00,62.2,53.8,29.94,NNW,338,7.4,7.4,74,0.00,OVC,,0.06,113.5,WeatherDisplay:10.37,2013-09-11 13:49:00,
2013-09-11 15:54:00,62.2,54.9,29.94,NW,315,6.9,6.9,77,0.00,OVC,,0.06,111.2,WeatherDisplay:10.37,2013-09-11 13:54:00,
2013-09-11 15:59:00,62.2,54.2,29.94,NW,315,5.8,5.8,75,0.00,OVC,,0.06,108.9,WeatherDisplay:10.37,2013-09-11 13:59:00,
2013-09-11 16:04:00,62.1,53.7,29.94,WNW,292,6.2,6.2,74,0.00,OVC,,0.06,106.6,WeatherDisplay:10.37,2013-09-11 14:04:00,
2013-09-11 16:09:00,62.1,53.7,30.00,WNW,292,5.8,5.8,74,0.00,OVC,,0.06,104.3,WeatherDisplay:10.37,2013-09-11 14:09:00,
2013-09-11 16:14:00,62.1,53.3,30.00,NNW,338,3.5,4.0,73,0.00,OVC,,0.06,101.8,WeatherDisplay:10.37,2013-09-11 14:14:00,
2013-09-11 16:19:00,62.6,54.6,30.00,NW,315,8.1,8.1,75,0.00,OVC,,0.06,99.3,WeatherDisplay:10.37,2013-09-11 14:19:00,
2013-09-11 16:24:00,63.1,54.3,29.97,NNW,338,8.1,8.1,73,0.00,OVC,,0.06,97.0,WeatherDisplay:10.37,2013-09-11 14:24:00,
2013-09-11 16:29:00,63.5,53.5,29.97,NNW,338,2.4,5.9,70,0.00,OVC,,0.06,94.4,WeatherDisplay:10.37,2013-09-11 14:29:00,
2013-09-11 16:34:00,63.3,53.8,29.97,NNW,338,2.4,5.9,71,0.00,OVC,,0.06,91.9,WeatherDisplay:10.37,2013-09-11 14:34:00,
2013-09-11 16:39:00,63.0,53.8,29.97,WNW,292,4.6,4.6,72,0.00,OVC,,0.06,89.4,WeatherDisplay:10.37,2013-09-11 14:39:00,
2013-09-11 16:44:00,62.8,53.2,29.97,NNW,338,5.8,5.8,71,0.00,OVC,,0.06,86.8,WeatherDisplay:10.37,2013-09-11 14:44:00,
2013-09-11 16:49:00,63.0,51.0,29.97,NNW,338,8.1,8.1,65,0.00,OVC,,0.06,84.2,WeatherDisplay:10.37,2013-09-11 14:49:00,
2013-09-11 16:54:00,63.0,49.7,29.97,NNW,338,10.4,10.4,62,0.00,OVC,,0.06,81.5,WeatherDisplay:10.37,2013-09-11 14:54:00,
2013-09-11 16:59:00,62.8,50.8,29.97,WNW,292,6.9,6.9,65,0.00,OVC,,0.06,78.9,WeatherDisplay:10.37,2013-09-11 14:59:00,
2013-09-11 17:04:00,62.8,51.2,29.97,NNW,338,4.7,4.7,66,0.00,OVC,,0.06,76.2,WeatherDisplay:10.37,2013-09-11 15:04:00,
2013-09-11 17:09:00,62.6,51.9,29.97,WNW,292,5.8,5.8,68,0.00,OVC,,0.06,73.4,WeatherDisplay:10.37,2013-09-11 15:09:00,
2013-09-11 17:14:00,62.4,50.5,29.97,NNW,338,8.5,8.5,65,0.00,OVC,,0.06,70.8,WeatherDisplay:10.37,2013-09-11 15:14:00,
2013-09-11 17:19:00,62.4,50.1,29.97,NNW,338,8.5,8.5,64,0.00,OVC,,0.06,68.1,WeatherDisplay:10.37,2013-09-11 15:19:00,
2013-09-11 17:24:00,62.2,51.1,29.97,NNW,338,8.1,8.1,67,0.00,OVC,,0.06,65.3,WeatherDisplay:10.37,2013-09-11 15:24:00,
2013-09-11 17:29:00,62.2,51.1,29.97,NNW,338,5.9,5.9,67,0.00,OVC,,0.06,62.5,WeatherDisplay:10.37,2013-09-11 15:29:00,
2013-09-11 17:34:00,62.1,50.6,29.97,NNW,338,8.1,8.1,66,0.00,OVC,,0.06,59.9,WeatherDisplay:10.37,2013-09-11 15:34:00,
2013-09-11 17:39:00,62.1,51.0,29.97,NNW,338,3.8,5.4,67,0.00,OVC,,0.06,57.1,WeatherDisplay:10.37,2013-09-11 15:39:00,
2013-09-11 17:44:00,61.9,49.6,29.97,WNW,292,7.6,7.6,64,0.00,OVC,,0.06,54.3,WeatherDisplay:10.37,2013-09-11 15:44:00,
2013-09-11 17:49:00,61.9,50.8,29.97,North,0,3.6,3.6,67,0.00,OVC,,0.06,51.5,WeatherDisplay:10.37,2013-09-11 15:49:00,
2013-09-11 17:54:00,61.7,50.2,29.97,NNW,338,4.6,4.6,66,0.00,OVC,,0.06,48.8,WeatherDisplay:10.37,2013-09-11 15:54:00,
2013-09-11 17:59:00,61.5,50.1,29.97,NNW,338,4.6,4.6,66,0.00,OVC,,0.06,46.0,WeatherDisplay:10.37,2013-09-11 15:59:00,
2013-09-11 18:04:00,61.3,49.9,29.97,NNW,338,4.6,4.6,66,0.00,OVC,,0.06,43.2,WeatherDisplay:10.37,2013-09-11 16:04:00,
2013-09-11 18:09:00,61.3,49.5,29.97,NW,315,5.8,5.8,65,0.00,OVC,,0.06,40.4,WeatherDisplay:10.37,2013-09-11 16:09:00,
2013-09-11 18:14:00,61.2,49.3,29.97,NNE,22,6.0,6.0,65,0.00,OVC,,0.06,37.6,WeatherDisplay:10.37,2013-09-11 16:14:00,
2013-09-11 18:19:00,61.0,49.5,29.97,NNE,22,6.0,6.0,66,0.00,OVC,,0.06,34.8,WeatherDisplay:10.37,2013-09-11 16:19:00,
2013-09-11 18:24:00,60.8,49.0,29.97,NNW,338,5.8,5.8,65,0.00,OVC,,0.06,32.2,WeatherDisplay:10.37,2013-09-11 16:24:00,
2013-09-11 18:29:00,60.6,49.2,29.97,NNW,338,5.8,5.8,66,0.00,OVC,,0.06,29.4,WeatherDisplay:10.37,2013-09-11 16:29:00,
2013-09-11 18:34:00,60.4,49.4,29.97,NNW,338,5.8,5.8,67,0.00,OVC,,0.06,26.6,WeatherDisplay:10.37,2013-09-11 16:34:00,
2013-09-11 18:39:00,60.3,49.3,29.97,NNW,338,5.8,5.8,67,0.00,OVC,,0.06,23.9,WeatherDisplay:10.37,2013-09-11 16:39:00,
2013-09-11 18:44:00,59.9,49.7,29.97,NNW,338,2.6,2.6,69,0.00,OVC,,0.06,21.3,WeatherDisplay:10.37,2013-09-11 16:44:00,
2013-09-11 18:49:00,59.7,49.5,29.97,NNW,338,2.6,2.6,69,0.00,OVC,,0.06,18.5,WeatherDisplay:10.37,2013-09-11 16:49:00,
2013-09-11 18:54:00,59.4,49.6,29.97,NW,315,2.4,2.4,70,0.00,OVC,,0.06,15.8,WeatherDisplay:10.37,2013-09-11 16:54:00,
2013-09-11 18:59:00,59.0,49.2,29.97,NW,315,2.4,2.4,70,0.00,OVC,,0.06,13.2,WeatherDisplay:10.37,2013-09-11 16:59:00,
2013-09-11 19:04:00,58.6,48.9,29.97,NW,315,3.5,3.5,70,0.00,OVC,,0.06,10.4,WeatherDisplay:10.37,2013-09-11 17:04:00,
2013-09-11 19:09:00,58.3,48.9,29.97,NW,315,2.3,2.3,71,0.00,OVC,,0.06,7.9,WeatherDisplay:10.37,2013-09-11 17:09:00,
2013-09-11 19:14:00,58.1,48.7,29.97,NW,315,2.3,2.3,71,0.00,OVC,,0.06,5.3,WeatherDisplay:10.37,2013-09-11 17:14:00,
2013-09-11 19:19:00,57.7,48.8,29.97,NW,315,2.3,2.3,72,0.00,OVC,,0.06,2.6,WeatherDisplay:10.37,2013-09-11 17:19:00,
2013-09-11 19:24:00,57.2,48.3,29.97,WNW,292,1.2,1.2,72,0.00,OVC,,0.06,0.7,WeatherDisplay:10.37,2013-09-11 17:24:00,
2013-09-11 19:29:00,56.8,48.3,29.97,WNW,292,2.9,2.9,73,0.00,OVC,,0.06,0.7,WeatherDisplay:10.37,2013-09-11 17:29:00,
2013-09-11 19:34:00,56.5,47.6,29.97,West,270,2.6,2.6,72,0.00,CLR,,0.06,0.0,WeatherDisplay:10.37,2013-09-11 17:34:00,
2013-09-11 19:39:00,56.1,47.6,30.00,West,270,2.6,2.6,73,0.00,CLR,,0.06,0.0,WeatherDisplay:10.37,2013-09-11 17:39:00,
2013-09-11 19:44:00,55.9,47.4,30.00,West,270,2.6,2.6,73,0.00,CLR,,0.06,0.0,WeatherDisplay:10.37,2013-09-11 17:44:00,
2013-09-11 19:49:00,55.6,47.4,30.00,NW,315,3.5,3.5,74,0.00,CLR,,0.06,0.0,WeatherDisplay:10.37,2013-09-11 17:49:00,
2013-09-11 19:54:00,55.4,47.2,30.00,NNW,338,2.4,2.6,74,0.00,CLR,,0.06,0.0,WeatherDisplay:10.37,2013-09-11 17:54:00,
2013-09-11 19:59:00,55.2,47.4,30.00,WNW,292,3.5,3.5,75,0.00,CLR,,0.06,0.0,WeatherDisplay:10.37,2013-09-11 17:59:00,
2013-09-11 20:04:00,55.2,47.4,30.00,WNW,292,2.3,2.3,75,0.00,CLR,,0.06,0.0,WeatherDisplay:10.37,2013-09-11 18:04:00,
2013-09-11 20:09:00,54.9,47.1,29.94,WNW,292,0.0,0.0,75,0.00,CLR,,0.06,0.0,WeatherDisplay:10.37,2013-09-11 18:09:00,
2013-09-11 20:14:00,54.7,46.9,29.94,WNW,292,0.0,0.0,75,0.00,CLR,,0.06,0.0,WeatherDisplay:10.37,2013-09-11 18:14:00,
2013-09-11 20:19:00,54.5,47.1,29.94,NW,315,0.0,0.0,76,0.00,CLR,,0.06,0.0,WeatherDisplay:10.37,2013-09-11 18:19:00,
2013-09-11 20:24:00,54.1,47.1,29.94,NNW,338,0.9,0.0,77,0.00,CLR,,0.06,0.0,WeatherDisplay:10.37,2013-09-11 18:24:00,
2013-09-11 20:29:00,54.0,47.3,29.94,NNW,338,0.0,0.0,78,0.00,CLR,,0.06,0.0,WeatherDisplay:10.37,2013-09-11 18:29:00,
2013-09-11 20:34:00,53.6,47.2,29.94,NNW,338,0.0,0.0,79,0.00,CLR,,0.06,0.0,WeatherDisplay:10.37,2013-09-11 18:34:00,
2013-09-11 20:39:00,53.4,47.4,29.94,NNW,338,1.2,0.0,80,0.00,CLR,,0.06,0.0,WeatherDisplay:10.37,2013-09-11 18:39:00,
2013-09-11 20:44:00,53.1,47.1,29.94,NNW,338,2.3,2.3,80,0.00,CLR,,0.06,0.0,WeatherDisplay:10.37,2013-09-11 18:44:00,
2013-09-11 20:50:00,52.9,47.2,29.94,WNW,292,3.1,3.1,81,0.00,CLR,,0.06,0.0,WeatherDisplay:10.37,2013-09-11 18:50:00,
2013-09-11 20:55:00,52.7,46.7,30.00,NW,315,3.5,3.5,80,0.00,CLR,,0.06,0.0,WeatherDisplay:10.37,2013-09-11 18:55:00,
2013-09-11 21:00:00,52.9,46.9,30.00,NNW,338,3.3,3.3,80,0.00,CLR,,0.06,0.0,WeatherDisplay:10.37,2013-09-11 19:00:00,
2013-09-11 21:05:00,52.9,47.2,30.00,NNW,338,2.3,2.3,81,0.00,CLR,,0.06,0.0,WeatherDisplay:10.37,2013-09-11 19:05:00,
2013-09-11 21:10:00,52.7,47.0,29.97,NNE,22,0.0,0.0,81,0.00,CLR,,0.06,0.0,WeatherDisplay:10.37,2013-09-11 19:10:00,
2013-09-11 21:15:00,52.7,47.4,29.97,NNE,22,0.0,0.0,82,0.00,CLR,,0.06,0.0,WeatherDisplay:10.37,2013-09-11 19:15:00,
2013-09-11 21:20:00,52.5,47.2,29.97,WSW,248,0.0,0.0,82,0.00,CLR,,0.06,0.0,WeatherDisplay:10.37,2013-09-11 19:20:00,
2013-09-11 21:25:00,52.3,47.0,29.94,WSW,248,0.0,0.0,82,0.00,CLR,,0.06,0.0,WeatherDisplay:10.37,2013-09-11 19:25:00,
2013-09-11 21:30:00,52.2,47.2,29.94,NNW,338,0.0,0.0,83,0.00,CLR,,0.06,0.0,WeatherDisplay:10.37,2013-09-11 19:30:00,
2013-09-11 21:35:00,52.0,47.0,29.94,NNW,338,0.0,0.0,83,0.00,CLR,,0.06,0.0,WeatherDisplay:10.37,2013-09-11 19:35:00,
2013-09-11 21:40:00,51.8,46.8,29.94,NNW,338,0.0,0.0,83,0.00,CLR,,0.06,0.0,WeatherDisplay:10.37,2013-09-11 19:40:00,
2013-09-11 21:45:00,51.6,46.9,29.94,NNW,338,0.0,0.0,84,0.00,CLR,,0.06,0.0,WeatherDisplay:10.37,2013-09-11 19:45:00,
2013-09-11 21:50:00,51.4,47.1,29.94,WSW,248,0.0,0.0,85,0.00,CLR,,0.06,0.0,WeatherDisplay:10.37,2013-09-11 19:50:00,
2013-09-11 21:55:00,51.4,47.1,29.94,WSW,248,0.0,0.0,85,0.00,CLR,,0.06,0.0,WeatherDisplay:10.37,2013-09-11 19:55:00,
2013-09-11 22:00:00,51.4,47.1,29.94,WNW,292,0.0,0.0,85,0.00,CLR,,0.06,0.0,WeatherDisplay:10.37,2013-09-11 20:00:00,
2013-09-11 22:05:00,51.3,47.2,29.94,WNW,292,0.0,0.0,86,0.00,CLR,,0.06,0.0,WeatherDisplay:10.37,2013-09-11 20:05:00,
2013-09-11 22:10:00,51.3,47.2,29.94,WNW,292,0.0,0.0,86,0.00,CLR,,0.06,0.0,WeatherDisplay:10.37,2013-09-11 20:10:00,
2013-09-11 22:15:00,51.1,47.0,29.94,WNW,292,0.0,0.0,86,0.00,CLR,,0.06,0.0,WeatherDisplay:10.37,2013-09-11 20:15:00,
2013-09-11 22:20:00,51.1,47.3,29.94,WNW,292,0.0,0.0,87,0.00,CLR,,0.06,0.0,WeatherDisplay:10.37,2013-09-11 20:20:00,
2013-09-11 22:25:00,50.9,47.5,29.94,WNW,292,0.0,0.0,88,0.00,CLR,,0.06,0.0,WeatherDisplay:10.37,2013-09-11 20:25:00,
2013-09-11 22:30:00,50.7,47.3,29.94,WNW,292,0.0,0.0,88,0.00,CLR,,0.06,0.0,WeatherDisplay:10.37,2013-09-11 20:30:00,
2013-09-11 22:35:00,50.5,47.1,29.94,WNW,292,0.0,0.0,88,0.00,CLR,,0.06,0.0,WeatherDisplay:10.37,2013-09-11 20:35:00,
2013-09-11 22:40:00,50.5,47.1,29.97,WNW,292,0.0,0.0,88,0.00,CLR,,0.06,0.0,WeatherDisplay:10.37,2013-09-11 20:40:00,
2013-09-11 22:45:00,50.2,46.8,29.97,WNW,292,0.0,0.0,88,0.00,CLR,,0.06,0.0,WeatherDisplay:10.37,2013-09-11 20:45:00,
2013-09-11 22:50:00,50.2,47.1,29.97,WNW,292,0.0,0.0,89,0.00,CLR,,0.06,0.0,WeatherDisplay:10.37,2013-09-11 20:50:00,
2013-09-11 22:55:00,50.0,46.9,29.97,WNW,292,0.0,0.0,89,0.00,CLR,,0.06,0.0,WeatherDisplay:10.37,2013-09-11 20:55:00,
2013-09-11 23:00:00,49.8,47.0,29.97,WNW,292,0.0,0.0,90,0.00,CLR,,0.06,0.0,WeatherDisplay:10.37,2013-09-11 21:00:00,
2013-09-11 23:05:00,49.8,47.0,29.97,WNW,292,0.0,0.0,90,0.00,CLR,,0.06,0.0,WeatherDisplay:10.37,2013-09-11 21:05:00,
2013-09-11 23:10:00,49.8,47.0,29.97,WNW,292,0.0,0.0,90,0.00,CLR,,0.06,0.0,WeatherDisplay:10.37,2013-09-11 21:10:00,
2013-09-11 23:15:00,49.6,47.1,29.97,WNW,292,0.0,0.0,91,0.00,CLR,,0.06,0.0,WeatherDisplay:10.37,2013-09-11 21:15:00,
2013-09-11 23:20:00,49.6,47.1,29.97,WNW,292,0.0,0.0,91,0.00,CLR,,0.06,0.0,WeatherDisplay:10.37,2013-09-11 21:20:00,
2013-09-11 23:25:00,49.6,47.1,29.97,NNE,22,0.0,0.0,91,0.00,CLR,,0.06,0.0,WeatherDisplay:10.37,2013-09-11 21:25:00,
2013-09-11 23:30:00,49.6,47.4,29.97,NNE,22,0.0,0.0,92,0.00,CLR,,0.06,0.0,WeatherDisplay:10.37,2013-09-11 21:30:00,
2013-09-11 23:35:00,49.6,47.4,29.97,NNE,22,0.0,0.0,92,0.00,CLR,,0.06,0.0,WeatherDisplay:10.37,2013-09-11 21:35:00,
2013-09-11 23:40:00,49.6,47.4,29.97,NNE,22,0.0,0.0,92,0.00,CLR,,0.06,0.0,WeatherDisplay:10.37,2013-09-11 21:40:00,
2013-09-11 23:45:00,49.8,47.9,29.97,NNE,22,0.0,0.0,93,0.00,CLR,,0.06,0.0,WeatherDisplay:10.37,2013-09-11 21:45:00,
2013-09-11 23:50:00,49.8,47.9,29.97,NNE,22,0.0,0.0,93,0.00,CLR,,0.06,0.0,WeatherDisplay:10.37,2013-09-11 21:50:00,
2013-09-11 23:55:00,50.0,48.1,29.97,NNE,22,0.0,0.0,93,0.00,CLR,,0.06,0.0,WeatherDisplay:10.37,2013-09-11 21:55:00,